www.pogodaiklimat.ru

Погода и климат >> Архив погоды >> Доминиканская Республика >> Пуэрто-Плата


ПОГОДА в Пуэрто-Плате

  • Прогноз погоды в Пуэрто-Плате
  • Монитор погоды в Пуэрто-Плате

АРХИВ ПОГОДЫ в Пуэрто-Плате

Время (UTC), дата Ветер
(напр.,м/с)
 
Видим.   Явления Облачность Т
(С)
Тd
(С)
f
(%)
Тe
(С)
Тes
(С)
Комфортность P
(гПа)
Po
(гПа)
Тmin
(С)
Tmax
(С)
R
(мм)
R24
(мм)
S
(см)
00 14.06 штиль 0 16 км 4/1 600 м
[Cu med, cong Cs]
+28.6 +24.0 76 +40 +40 очень
душно
1016.9 1016.3 +24.5 +33.0
03 14.06 штиль 0 16 км 4/3 540 м
[Cu med, cong Cs]
+27.2 +23.7 81 +37 +37 очень
душно
1018.4 1017.8
06 14.06 штиль 0 16 км 3/1 540 м
[Cu med, cong Cs]
+25.8 +23.3 86 +35 +35 очень
душно
1017.5 1016.9 +24.5 +33.0
09 14.06 штиль 0 16 км 1/1 540 м
[Cu med, cong]
+24.0 +23.1 95 +32 +32 очень
душно
1018.6 1018.0
12 14.06 штиль 0 16 км 3/1 540 м
[Cu med, cong Cs]
+28.0 +23.4 76 +38 +43 очень
душно
1018.8 1018.2 +24.5 +33.0
15 14.06 В 7 16 км 5/4 660 м
[Cu med, cong Cs]
+31.8 +24.4 65 +44 +47 опасность
перегрева
1018.8 1018.2
18 14.06 В 7 16 км 1/1 750 м
[Cu med, cong]
+31.6 +23.2 61 +42 +47 опасность
перегрева
1017.1 1016.5 +24.5 +33.3
21 14.06 В 8 16 км 1/1 700 м
[Cu med, cong]
+30.8 +23.7 66 +42 +43 опасность
перегрева
1015.5 1014.9
00 15.06 В 8 16 км 1/1 600 м
[Cu med, cong]
+27.5 +23.6 79 +37 +37 очень
душно
1016.1 1015.5 +24.5 +33.5
03 15.06 штиль 0 16 км 1/1 540 м
[Cu med, cong]
+26.8 +23.8 84 +37 +37 очень
душно
1018.1 1017.5
06 15.06 штиль 0 16 км 1/1 540 м
[Cu med, cong]
+25.4 +23.5 89 +34 +34 очень
душно
1017.3 1016.7 +24.5 +33.5
09 15.06 штиль 0 16 км 1/1 540 м
[Cu med, cong]
+23.6 +23.3 98 +32 +32 очень
душно
1016.6 1016.0
12 15.06 штиль 0 16 км 3/3 540 м
[Cu med, cong]
+26.1 +22.7 82 +35 +38 очень
душно
1017.5 1016.9 +22.2 +33.5
15 15.06 В 5 16 км 6/6 600 м
[Cu med, cong]
+31.6 +23.8 63 +43 +47 опасность
перегрева
1017.8 1017.2
18 15.06 В 10 16 км 3/3 660 м
[Cu med, cong]
+32.4 +24.3 62 +45 +45 опасность
перегрева
1015.9 1015.3 +22.2 +33.0
21 15.06 В 8 16 км 3/3 660 м
[Cu med, cong]
+30.7 +23.6 66 +42 +42 опасность
перегрева
1014.8 1014.2
00 16.06 В 5 16 км 5/3 540 м
[Cu Sc Ci fib]
+28.1 +24.1 79 +39 +39 очень
душно
1015.8 1015.2 +22.2 +33.2
03 16.06 штиль 0 16 км 4/4 540 м
[Cu Sc]
+26.8 +23.0 80 +36 +36 очень
душно
1017.3 1016.7
06 16.06 штиль 0 16 км 3/3 480 м
[Cu med, cong]
+26.2 +22.9 82 +35 +35 очень
душно
1016.3 1015.7 +22.2 +33.2
09 16.06 штиль 0 16 км 3/3 480 м
[Cu med, cong]
+25.4 +22.0 81 +33 +33 очень
душно
1015.9 1015.3
15 16.06 В 6 16 км 5/5 660 м
[Cu med, cong]
+30.2 +23.2 66 +40 +44 очень
душно
1017.4 1016.8
18 16.06 В 10 16 км 3/3 660 м
[Cu med, cong]
+32.2 +24.2 63 +44 +45 опасность
перегрева
1015.4 1014.8 +23.2 +33.0
21 16.06 В 10 16 км 3/3 660 м
[Cu med, cong]
+30.4 +23.6 67 +41 +42 опасность
перегрева
1014.4 1013.8
00 17.06 ЮВ 5 16 км 3/3 540 м
[Cu Sc]
+27.8 +24.3 81 +39 +39 очень
душно
1016.2 1015.6 +23.2 +33.0
09 17.06 штиль 0 16 км 3/3 480 м
[Cu med, cong]
+25.4 +22.6 85 +33 +33 очень
душно
1016.6 1016.0
12 17.06 штиль 0 16 км 1/1 540 м
[Cu hum]
+27.4 +23.2 78 +37 +42 очень
душно
1017.6 1017.0 +23.0 +33.0
15 17.06 В 8 16 км 4/4 660 м
[Cu Sc]
+31.4 +24.5 67 +44 +46 опасность
перегрева
1018.1 1017.5
00 18.06 штиль 0 16 км 3/1 540 м
[Cu med, cong Cs]
+28.0 +24.5 81 +39 +39 очень
душно
1017.8 1017.2 +23.0 +33.7
03 18.06 штиль 0 16 км 1/1 540 м
[Cu med, cong]
+26.8 +24.1 85 +37 +37 очень
душно
1019.4 1018.8
06 18.06 штиль 0 16 км 1/1 540 м
[Cu med, cong]
+26.4 +23.9 86 +36 +36 очень
душно
1018.3 1017.7 +23.0 +33.7
09 18.06 штиль 0 16 км 1/1 540 м
[Cu med, cong]
+24.4 +23.0 92 +32 +32 очень
душно
1017.2 1016.6
12 18.06 штиль 0 16 км 1/1 540 м
[Cu med, cong]
+28.0 +24.0 79 +39 +44 очень
душно
1018.3 1017.7 +24.8 +33.7
15 18.06 В 5 16 км 5/5 600 м
[Cu med, cong]
+31.2 +24.3 67 +43 +48 опасность
перегрева
1018.2 1017.6
00 19.06 ЮВ 5 16 км 3/3 600 м
[Cu med, cong]
+26.8 +23.9 84 +37 +37 очень
душно
1017.0 1016.4 +24.8 +33.7
03 19.06 В 3 16 км 4/4 540 м
[Cu med, cong]
+26.5 +23.9 86 +37 +37 очень
душно
1018.8 1018.2
06 19.06 В 4 16 км 1/1 540 м
[Cu med, cong]
+25.4 +23.7 90 +35 +35 очень
душно
1017.4 1016.8 +24.0 +33.7
09 19.06 штиль 0 16 км 1/1 500 м
[Cu med, cong]
+24.4 +23.1 92 +32 +32 очень
душно
1016.4 1015.8
15 19.06 ЮВ 6 16 км 5/5 660 м
[Cu med, cong]
+32.6 +24.7 63 +46 +49 опасность
перегрева
1017.3 1016.7
18 19.06 В 11 16 км 3/3 750 м
[]
+32.8 +25.1 64 +47 +47 опасность
перегрева
1016.2 1015.6 +23.5 +34.3
21 19.06 В 9 16 км 1/1 700 м
[Cu med, cong]
+32.0 +24.7 65 +45 +45 опасность
перегрева
1015.0 1014.4
00 20.06 В 5 16 км 4/1 600 м
[Cu med, cong Ci]
+28.1 +24.6 81 +40 +40 очень
душно
1016.1 1015.5 +23.5 +34.0
03 20.06 штиль 0 16 км 4/4 540 м
[Cu med, cong]
+26.5 +24.2 87 +37 +37 очень
душно
1017.4 1016.8
06 20.06 штиль 0 16 км 3/3 480 м
[Cu med, cong]
+25.4 +24.0 92 +35 +35 очень
душно
1017.2 1016.6 +23.5 +34.0
09 20.06 штиль 0 16 км 1/1 480 м
[Cu med, cong]
+24.4 +23.4 94 +33 +33 очень
душно
1017.2 1016.6
12 20.06 штиль 0 12 км пыль {туман} 1/1 540 м
[Cu med, cong]
+28.0 +24.0 79 +39 +44 очень
душно
1017.9 1017.3 +24.0 +34.3
15 20.06 В 8 14 км пыль {туман} 4/4 660 м
[Cu med, cong]
+32.5 +23.8 60 +44 +46 опасность
перегрева
1018.1 1017.5

 

Местоположение метеостанции Пуэрто-Плата (Доминиканская Республика): широта 19.75 долгота -70.55 высота над уровнем моря 5 м.

В архиве по умолчанию представлена погода в Пуэрто-Плате за последнюю неделю. Архивные данные за месяц целиком и за предыдущие месяцы, начиная с января 2011 года, Вы можете получить, выбрав интересующий диапазон дат из раскрывающегося списка и нажав кнопку "Ввод!".


*Определитесь, кто Вы:
робот инопланетянин человек

Внимание! Время в таблицах - всемирное. Для получения местного времени необходимо прибавить поправку, которая равна -4 ч.

Смотрите также архив погоды в соседних городах и на ближайших метеорологических станциях:

Погода в Сантьяго (Доминиканская Республика) (37 км)
Погода в Сабана де ла Мар (Доминиканская Республика) (145 км)
Погода в Санто-Доминго (Доминиканская Республика) (163 км)
Погода в Лас Америкас (Доминиканская Республика) (174 км)
Погода в Бараоне (Доминиканская Республика) (182 км)
Погода в Ла Романа аэропорту (Доминиканская Республика) (224 км)
Погода в Пунта-Кане (Доминиканская Республика) (265 км)
Погода в Пунта-де-Маиси (Куба) (380 км)
Погода в Пунта Лукреция (Куба) (547 км)
Погода в Кабо-Луреции (Куба) (548 км)

Пояснения к столбцам:

Ветер - указаны скорость ветра в м/с - средняя за 10 мин, порывы в срок и между сроками (в фигурных скобках) и направление, откуда дует ветер: С - северный, СВ - северо-восточный, В - восточный, ЮВ - юго-восточный, Ю - южный, ЮЗ - юго-западный, З - западный, СЗ - северо-западный.
Видимость - горизонтальная дальность видимости в метрах или километрах. При видимости от 1 до 10 км при отсутствии осадков обычно наблюдается дымка, при ухудшении видимости до 1 км и менее - туман. В сухую погоду видимость может ухудшаться дымом, пылью или мглою.
Явления - указаны атмосферные явления, наблюдавшиеся в срок или в последний час перед сроком; фигурными скобками обозначены явления, наблюдавшиеся между сроками (за 1-3 часа до срока); квадратными скобками обозначены град или гололедные отложения с указанием их диаметра в мм.
Облачность - указаны через наклонную черту общая и нижняя облачность в баллах и высота нижней границы облаков в метрах; квадратными скобками обозначены формы облаков: Ci - перистые, Cs - перисто-слоистые, Cc - перисто-кучевые, Ac - высококучевые, As - высокослоистые, Sc - слоисто-кучевые, Ns - слоисто-дождевые, Cu - кучевые, Cb - кучево-дождевые. Подробнее классификацию облаков см. в Атласе облаков (PDF).
T - Температура воздуха - температура, измеренная на высоте 2 м над землей.
Td - Температура точки росы - температура, при понижении до которой содержащийся в воздухе водяной пар достигнет насыщения.
f - Относительная влажность воздуха - влажноcть воздуха, измеренная на высоте 2 м над землей.
Te - Эффективная температура - температура, которую ощущает одетый по сезону человек в тени. Характеристика душности погоды. При расчете учитывается влияние влажности воздуха и скорости ветра на теплоощущения человека.
Tes - Эффективная температура на солнце - температура, которую ощущает человек, с поправкой на солнечный нагрев. Характеристика знойности погоды. Зависит от высоты солнца над горизонтом, облачности и скорости ветра. Ночью, в пасмурную погоду, а также при ветре 12 м/с и более поправка равна нулю.
P - Атмосферное давление - приведенное к уровню моря атмосферное давление.
Po - Атмосферное давление - измеренное на уровне метеостанции атмосферное давление.
Tmin - Минимальная температура - минимум температуры воздуха на высоте 2 м над землей.
Tmax - Максимальная температура - максимум температуры воздуха на высоте 2 м над землей.
R - Количество осадков - Количество выпавших осадков за период времени, мм. При наведении курсора мыши на число - период времени, за который выпало указанное количество осадков.
R24 - Количество осадков - Количество выпавших осадков за 24 часа, мм.
S - Снежный покров - Высота снежного покрова, см. При наведении курсора мыши на число - состояние снежного покрова и степень покрытия местности в баллах.